Location: Parc National du Mont-Orford
(45.3122°N, 72.2403°W)
Time: 05:00:43
(UTC-05:00)

Envisat - Visible Passes

Search period start: 23 January 2018 00:00
Search period end: 02 February 2018 00:00
Orbit: 764 x 766 km, 98.2° (Epoch: 22 January)

Date Brightness Start Highest point End Pass type
(mag) Time Alt. Az. Time Alt. Az. Time Alt. Az.
23 Jan 3.5 18:36:31 36° NE 18:36:31 36° NE 18:40:42 10° N visible
23 Jan 4.9 20:16:42 25° WNW 20:16:42 25° WNW 20:19:36 10° NNW visible
24 Jan 4.3 17:59:05 18° ENE 17:59:42 19° ENE 18:03:11 10° NNE visible
24 Jan 3.6 19:39:16 51° NW 19:39:16 51° NW 19:43:18 10° NNW visible
25 Jan 3.0 19:01:51 60° NE 19:01:51 60° NE 19:06:33 10° N visible
25 Jan 5.5 20:42:01 17° WNW 20:42:01 17° WNW 20:44:23 10° NW visible
26 Jan 3.7 18:24:23 29° E 18:25:02 30° ENE 18:29:24 10° N visible
26 Jan 4.4 20:04:34 36° W 20:04:34 36° W 20:08:39 10° NNW visible
27 Jan 4.5 17:46:56 13° E 17:48:43 16° ENE 17:51:38 10° NNE visible
27 Jan 3.0 19:27:07 80° W 19:27:07 80° W 19:32:12 10° NNW visible
28 Jan 3.1 18:49:39 45° E 18:50:27 49° ENE 18:55:20 10° N visible
28 Jan 5.1 20:29:50 22° W 20:29:50 22° W 20:33:40 10° NW visible
29 Jan 4.0 18:12:11 20° E 18:14:00 25° ENE 18:18:04 10° N visible
29 Jan 3.9 19:52:23 46° WSW 19:52:44 47° W 19:57:39 10° NNW visible
30 Jan 4.7 17:35:36 10° E 17:37:45 13° ENE 17:39:54 10° NNE visible
30 Jan 2.8 19:14:54 57° SSE 19:15:57 83° ENE 19:21:03 10° NNW visible
30 Jan 5.8 20:55:05 13° W 20:55:37 13° W 20:57:54 10° WNW visible
31 Jan 3.4 18:37:25 28° ESE 18:39:22 40° ENE 18:44:06 10° N visible
31 Jan 4.8 20:17:36 26° WSW 20:18:29 28° W 20:22:50 10° NW visible
01 Feb 4.2 17:59:55 12° ESE 18:02:59 20° ENE 18:06:39 10° NNE visible
01 Feb 3.4 19:40:06 42° SSW 19:41:34 59° W 19:46:36 10° NNW visible
